カタログに戻る

CZ-5 R/B

運用中HEO
NORAD 59021·ROCKET BODY·🇨🇳 China

打ち上げ Feb 23, 2024 から Wenchang Space Launch Site

Loading…

次のパス (今後24時間)

TLE

最新Source: Space-Track

元期: Sep 14, 2026, 01:43 UTC

1 59021U 24037B   26257.07192719  .00007119  00000-0  13160-2 0  9992
2 59021  16.3328 278.2979 7029860 270.2828  16.4273  2.61102038 23716

AllMySatでCZ-5 R/Bをリアルタイム追跡

Download on the App Store